[[{"header":{"parameterUnit":"m.s-1","parameterCategory":1,"la1":30.2991,"la2":30.254,"lo1":-89.0895,"lo2":-89.0444,"dy":0.0017,"dx":0.0017,"nx":28,"ny":28,"refTime":"2023-10-12T09:00:00:Z","depth":0,"parameterNumber":2,"parameterNumberName":"U-component_of_WINDS"},"data":[0,0,0,0,0,0,0,0,0,0,0,0,0,0,0,0,0,0,0,0,0,0,0,0,0,0,0,0,0,0,0,0,0,0,0,0,0,0,0,0,0,0,0,0,0,0,0,0,0,0,0,0,0,0,0,0,0,0,0.9096,0.9095,0,0.9041,0.904,0.904,0.8977,0.8976,0.8975,0.8974,0.8919,0.8918,0.8918,0,0,0,0,0,0,0,0,0,0,0,0,0,0.9144,0.9143,0.9096,0.9095,0.9094,0.9041,0.904,0.9039,0.8977,0.8976,0.8975,0.8974,0.8919,0.8918,0.8918,0,0,0,0,0,0,0,0,0,0,0,0,0,0.911,0.9143,0.9096,0.9057,0.9053,0.9041,0.904,0.9039,0.8978,0.8976,0.8975,0.8974,0.8919,0.8918,0.8917,0.894,0,0,0.8915,0.8914,0,0,0,0,0,0,0,0,0.9112,0.9108,0.9063,0.9059,0.9055,0.9014,0.9037,0.9006,0.8978,0.9006,0.8974,0.8973,0.8952,0.8948,0.8941,0.8937,0.8935,0.8915,0.8914,0.8914,0.8913,0,0,0,0,0,0,0,0.9114,0.911,0.9074,0.9063,0.9058,0.9041,0.9035,0.9031,0.8987,0.9004,0.8999,0.8993,0.8949,0.8942,0.8939,0.8934,0.8915,0.8914,0.8913,0.8913,0.8942,0.8943,0,0,0,0,0,0,0.9122,0.9112,0.9076,0.9072,0.908,0.9042,0.9034,0.9029,0.8987,0.898,0.8995,0.8991,0.8944,0.894,0.8937,0.8958,0.8914,0.8913,0.8912,0.894,0.8942,0.8943,0,0,0,0,0,0,0.9124,0.912,0.9078,0.9091,0.9084,0.9042,0.9037,0.9029,0.9021,0.898,0.8972,0.8995,0.8943,0.8938,0.8939,0.8955,0.8912,0.8911,0.8939,0.8941,0.8943,0.9001,0,0,0,0,0,0,0.9125,0.9121,0.9129,0.9092,0.9084,0.9081,0.9038,0.9028,0.902,0.9014,0.8979,0.8972,0.8941,0.894,0.8938,0.8953,0.8911,0.8937,0.894,0.8942,0.8998,0.9005,0.9011,0,0,0,0,0,0.9127,0.9149,0.913,0.9126,0.9094,0.9082,0.9078,0.9043,0.9021,0.9029,0.9002,0.8973,0.8954,0.8941,0.8937,0.8953,0.8936,0.8939,0.8942,0.8995,0.9003,0.9011,0,0,0,0,0,0,0.9191,0.9143,0.9122,0.9132,0.9112,0.9072,0.9081,0.9054,0.9039,0.9034,0.8991,0.8984,0.8988,0.8971,0.8957,0.897,0.894,0.8943,0.8982,0.899,0.8996,0.9,0.891,0,0,0,0,0,0.9206,0.9201,0.9159,0.9172,0.9163,0.9124,0.9118,0.9092,0.9069,0.906,0.9033,0.9012,0.9,0.8994,0.8982,0.8995,0.8985,0.9003,0.901,0.9016,0.9018,0.902,0.9027,0.8953,0.8953,0.8953,0,0,0.9237,0.921,0.921,0.9184,0.9165,0.916,0.9117,0.9114,0.9109,0.9059,0.9057,0.9037,0.901,0.9016,0.9017,0.9001,0.9036,0.902,0.9024,0.9023,0.9024,0.9031,0.9037,0.8955,0.8955,0.8954,0,0,0.929,0.9271,0.9278,0.9259,0.9231,0.9204,0.9206,0.9169,0.9154,0.9151,0.9112,0.9106,0.9088,0.9069,0.9058,0.9101,0.9072,0.9098,0.9134,0.9136,0.9142,0.9147,0.916,0.9165,0.9101,0.9101,0.9101,0,0.9333,0.9324,0.9285,0.9283,0.9272,0.9226,0.9231,0.9215,0.9184,0.9177,0.916,0.9134,0.9113,0.9112,0.9122,0.9115,0.9114,0.9102,0.9144,0.9149,0.9153,0.9165,0.917,0.9104,0.9104,0.9104,0.9103,0,0.9376,0.937,0.9379,0.9348,0.9338,0.9341,0.9301,0.9295,0.927,0.9244,0.924,0.9213,0.9193,0.9191,0.9167,0.9186,0.9176,0.9153,0.9121,0.9164,0.9174,0.9178,0.9109,0.9108,0.9107,0.9106,0,0,0.9469,0.9415,0.9419,0.9404,0.9367,0.9362,0.9361,0.934,0.9335,0.9315,0.9311,0.9296,0.9272,0.9259,0.9232,0.9234,0.9267,0.9209,0.9208,0.9219,0.9283,0.93,0.9306,0.9248,0.9249,0.9249,0.9284,0,0.9514,0.951,0.9474,0.9479,0.9471,0.9426,0.9425,0.9402,0.9378,0.9367,0.934,0.9329,0.93,0.9291,0.9291,0.9263,0.9279,0.926,0.9243,0.9243,0.925,0.9312,0.9331,0.9366,0.9288,0.9289,0.929,0,0.9567,0.9549,0.9553,0.9514,0.9509,0.9509,0.9486,0.9477,0.9449,0.943,0.9414,0.9383,0.9377,0.9349,0.9339,0.9327,0.9318,0.9303,0.9303,0.9299,0.9268,0.9308,0.9376,0.9381,0.9296,0.9296,0.9295,0,0.9632,0.9608,0.9606,0.9595,0.955,0.955,0.9532,0.9502,0.9491,0.9471,0.9463,0.9442,0.9431,0.9415,0.9378,0.9361,0.9372,0.9341,0.9355,0.9356,0.9359,0.9359,0.9425,0.9356,0.9356,0.9356,0.9356,0,0.9686,0.969,0.9634,0.9634,0.9636,0.9594,0.9597,0.9573,0.9547,0.954,0.95,0.9494,0.9446,0.9434,0.9406,0.94,0.9396,0.938,0.9372,0.9383,0.9385,0.9375,0.9371,0.9357,0.9357,0.9356,0.9356,0,0.9758,0.9722,0.9717,0.9674,0.9663,0.9666,0.9629,0.9625,0.9598,0.9589,0.9584,0.9541,0.9525,0.9486,0.946,0.944,0.9442,0.9429,0.9451,0.9446,0.9462,0.946,0.9523,0.9528,0.9457,0.9458,0.9459,0,0.9794,0.9796,0.9752,0.9744,0.9727,0.9715,0.9703,0.9661,0.965,0.9616,0.9616,0.9596,0.9578,0.9553,0.9519,0.9498,0.9483,0.9506,0.9479,0.9489,0.948,0.948,0.9479,0.9512,0.9513,0.9513,0.9514,0,0.9861,0.9842,0.9827,0.9804,0.9791,0.9771,0.9749,0.9745,0.9697,0.9686,0.9668,0.9654,0.9626,0.9606,0.9579,0.9558,0.9527,0.9523,0.9524,0.9535,0.9547,0.9538,0.9466,0.9521,0.9521,0.952,0.952,0.9519,0.9915,0.9913,0.9882,0.9865,0.9844,0.9823,0.9817,0.9788,0.9772,0.9746,0.9722,0.9706,0.9674,0.9635,0.9616,0.9602,0.9586,0.959,0.959,0.9591,0.9595,0.955,0.9597,0.9596,0.9596,0.9596,0.9596,0,0.9978,0.9955,0.994,0.991,0.9896,0.9868,0.9842,0.9832,0.9818,0.9792,0.9774,0.9752,0.9731,0.9694,0.967,0.9666,0.9651,0.9661,0.966,0.9655,0.9611,0.9611,0.9673,0.9673,0.9673,0.9673,0.9673,0.9673,1.0009,1.0004,0.9981,0.9964,0.994,0.9924,0.9911,0.9891,0.9869,0.9846,0.9829,0.9805,0.9774,0.9746,0.9726,0.9715,0.9707,0.9721,0.9706,0.9666,0.9658,0.9652,0.9651,0.972,0.972,0.9751,0.9751,0.9751]},{"header":{"parameterUnit":"m.s-1","parameterCategory":1,"la1":30.2991,"la2":30.254,"lo1":-89.0895,"lo2":-89.0444,"dy":0.0017,"dx":0.0017,"nx":28,"ny":28,"refTime":"2023-10-12T09:00:00:Z","depth":0,"parameterNumber":3,"parameterNumberName":"V-component_of_WINDS"},"data":[0,0,0,0,0,0,0,0,0,0,0,0,0,0,0,0,0,0,0,0,0,0,0,0,0,0,0,0,0,0,0,0,0,0,0,0,0,0,0,0,0,0,0,0,0,0,0,0,0,0,0,0,0,0,0,0,0,0,2.2418,2.2417,0,2.2353,2.2353,2.2352,2.2285,2.2284,2.2284,2.2283,2.2217,2.2216,2.2215,0,0,0,0,0,0,0,0,0,0,0,0,0,2.2482,2.2482,2.2418,2.2417,2.2416,2.2353,2.2353,2.2352,2.2286,2.2284,2.2283,2.2282,2.2217,2.2216,2.2215,0,0,0,0,0,0,0,0,0,0,0,0,0,2.244,2.2481,2.2418,2.2376,2.2371,2.2354,2.2353,2.2351,2.2286,2.2284,2.2283,2.2282,2.2217,2.2216,2.2214,2.2233,0,0,2.221,2.221,0,0,0,0,0,0,0,0,2.2442,2.2438,2.2383,2.2379,2.2374,2.2326,2.2351,2.2312,2.2286,2.2318,2.2283,2.2281,2.2254,2.225,2.224,2.223,2.2227,2.221,2.2209,2.2209,2.2208,0,0,0,0,0,0,0,2.2445,2.244,2.2392,2.2382,2.2377,2.2359,2.2352,2.2343,2.2295,2.2315,2.231,2.2304,2.2251,2.2242,2.2238,2.2226,2.221,2.2209,2.2208,2.2208,2.2224,2.2225,0,0,0,0,0,0,2.2455,2.2443,2.2394,2.239,2.2405,2.2359,2.2351,2.2343,2.2295,2.2286,2.2305,2.2301,2.2245,2.224,2.2236,2.2252,2.2209,2.2207,2.2207,2.2223,2.2224,2.2226,0,0,0,0,0,0,2.2457,2.2451,2.2397,2.2415,2.2407,2.236,2.2351,2.2342,2.2333,2.2287,2.2277,2.2304,2.2244,2.2238,2.2233,2.2249,2.2207,2.2206,2.2221,2.2223,2.2225,2.2286,0,0,0,0,0,0,2.2459,2.2452,2.246,2.2416,2.2406,2.2397,2.2352,2.2342,2.233,2.2325,2.2284,2.2276,2.2242,2.2236,2.2232,2.2246,2.2205,2.222,2.2222,2.2225,2.2282,2.229,2.2296,0,0,0,0,0,2.2461,2.248,2.246,2.2455,2.2414,2.2398,2.2392,2.2353,2.2332,2.2338,2.2308,2.2277,2.2248,2.2236,2.2231,2.2245,2.2219,2.2222,2.2224,2.2279,2.2288,2.2296,0,0,0,0,0,0,2.2527,2.2474,2.2451,2.2456,2.2432,2.2387,2.2393,2.2365,2.2346,2.2341,2.2294,2.2285,2.2286,2.2265,2.2253,2.2259,2.2229,2.2231,2.2272,2.228,2.2287,2.2291,2.2203,0,0,0,0,0,2.2542,2.2534,2.2487,2.2496,2.2485,2.2442,2.2433,2.2405,2.2378,2.2367,2.2337,2.2312,2.2296,2.2287,2.2271,2.2279,2.2268,2.2286,2.2293,2.2299,2.23,2.23,2.2307,2.2235,2.2235,2.2235,0,0,2.2573,2.2543,2.2541,2.2509,2.2486,2.2477,2.2433,2.2426,2.2419,2.2366,2.2359,2.2336,2.2305,2.2306,2.2305,2.2289,2.2318,2.2302,2.2307,2.2306,2.2304,2.231,2.2316,2.2237,2.2237,2.2236,0,0,2.2625,2.2602,2.2606,2.2584,2.2551,2.2521,2.2522,2.2481,2.2463,2.2455,2.2415,2.2405,2.2381,2.2358,2.2344,2.2385,2.2354,2.2381,2.2416,2.2416,2.2422,2.2427,2.2438,2.2444,2.2383,2.2384,2.2384,0,2.2668,2.2653,2.2611,2.2606,2.2592,2.2543,2.2545,2.2526,2.249,2.2481,2.2463,2.2429,2.2405,2.2399,2.2408,2.2399,2.2397,2.2385,2.2425,2.2429,2.2433,2.2443,2.2448,2.2387,2.2387,2.2386,2.2386,0,2.2706,2.2696,2.2703,2.2667,2.2654,2.2653,2.261,2.2602,2.2575,2.2547,2.2538,2.2507,2.2482,2.2478,2.2453,2.2468,2.2458,2.2434,2.2402,2.2443,2.2452,2.2456,2.2392,2.239,2.2389,2.2389,0,0,2.2797,2.2738,2.2741,2.2723,2.2682,2.2673,2.2668,2.2643,2.2636,2.2612,2.2605,2.2585,2.256,2.2544,2.2515,2.2515,2.2546,2.249,2.2488,2.2499,2.2557,2.2575,2.258,2.2526,2.2526,2.2527,2.2559,0,2.284,2.2829,2.279,2.2791,2.278,2.2732,2.2728,2.2701,2.2675,2.2661,2.2631,2.2616,2.2587,2.2576,2.2574,2.2543,2.2556,2.254,2.2517,2.2517,2.2525,2.2586,2.2605,2.2637,2.2563,2.2563,2.2564,0,2.2889,2.2866,2.2865,2.2822,2.2816,2.2813,2.2785,2.2773,2.2741,2.2721,2.2702,2.2669,2.266,2.2632,2.2617,2.2606,2.2594,2.2577,2.2577,2.2572,2.2542,2.258,2.2646,2.265,2.2569,2.2569,2.2568,0,2.2952,2.2922,2.2917,2.2904,2.2854,2.2852,2.2831,2.2798,2.2784,2.276,2.275,2.2726,2.2712,2.2693,2.2653,2.2637,2.2642,2.2611,2.2623,2.2624,2.2626,2.2626,2.2689,2.2622,2.2622,2.2622,2.2622,0,2.3003,2.3003,2.2944,2.2941,2.294,2.2895,2.2894,2.2869,2.2839,2.2828,2.2787,2.2778,2.2727,2.2711,2.268,2.2671,2.2665,2.2648,2.2639,2.265,2.2652,2.2641,2.2637,2.2623,2.2623,2.2622,2.2622,0,2.3073,2.3034,2.3025,2.2978,2.2966,2.2967,2.2925,2.2919,2.289,2.2877,2.2871,2.2824,2.2804,2.2762,2.2731,2.2709,2.2706,2.2693,2.2717,2.2711,2.2725,2.2723,2.2781,2.2785,2.2718,2.2719,2.272,0,2.3107,2.3106,2.3059,2.3049,2.3029,2.3014,2.2999,2.2955,2.2941,2.2903,2.2901,2.2877,2.2856,2.2824,2.2787,2.2761,2.2745,2.2767,2.2741,2.2751,2.2742,2.2742,2.274,2.2773,2.2773,2.2774,2.2775,0,2.3171,2.3151,2.3132,2.3106,2.309,2.3067,2.3042,2.3036,2.2985,2.2972,2.295,2.2933,2.2899,2.2875,2.2844,2.282,2.2788,2.2783,2.2784,2.2795,2.2808,2.2799,2.2731,2.2782,2.2781,2.2781,2.278,2.278,2.3222,2.3218,2.3183,2.3163,2.3139,2.3116,2.3108,2.3076,2.3057,2.3026,2.3001,2.2981,2.2946,2.29,2.2879,2.2861,2.2846,2.2848,2.2848,2.2849,2.2852,2.2813,2.2855,2.2855,2.2855,2.2855,2.2854,0,2.3282,2.3256,2.3238,2.3204,2.3187,2.3159,2.3129,2.3117,2.31,2.307,2.3049,2.3022,2.2998,2.2958,2.2929,2.2923,2.2907,2.2916,2.2916,2.291,2.2869,2.287,2.2929,2.2929,2.2929,2.2929,2.2929,2.2929,2.331,2.3301,2.3277,2.3255,2.3229,2.3209,2.3194,2.3171,2.3147,2.3119,2.3099,2.3073,2.3038,2.3006,2.2982,2.297,2.2961,2.2975,2.2958,2.292,2.2913,2.2907,2.2907,2.2974,2.2974,2.3001,2.3001,2.3001]}]]